Location: Córrego Montividiu
(13.2496°S, 48.8603°W)
Time: 19:11:21
(UTC+00:00)

Resurs 1-3 - Pass Details

Date: 11 March 2026
Orbit: 613 x 614 km, 97.7° (Epoch: 17 April)

Event Time Altitude Azimuth Distance (km) Brightness Sun altitude
Rises 21:48:13 0° 158° (SSE) 2,892 6.8 -4.8°
Reaches altitude 10° 21:50:30 10° 151° (SSE) 1,982 5.9 -5.3°
Maximum altitude 21:54:35 42° 80° (E) 878 3.9 -6.3°
Drops below altitude 10° 21:58:38 10° 8° (N) 1,964 6.0 -7.3°
Sets 22:00:53 0° 2° (N) 2,863 6.9 -7.8°
